Regional Weather Roundup
Issued by NWS

Home | Current Version | Previous Version | Text Only | Print | Product List | Glossary On
Versions: 1 2 3 4 5 6 7 8 9 10 11 12 13 14 15 16 17 18 19 20 21 22 23 24 25 26 27 28 29 30 31 32 33 34 35 36 37 38 39 40 41 42 43 44 45 46 47 48 49 50
000
ASUS43 KTOP 241059
RWRKS

WEATHER ROUNDUP FOR KANSAS
NATIONAL WEATHER SERVICE GOODLAND KS
600 AM CDT SAT SEP 24 2016

NOTE:  "FAIR" INDICATES FEW OR NO CLOUDS BELOW 12,000 FEET WITH NO
SIGNIFICANT WEATHER AND/OR OBSTRUCTIONS TO VISIBILITY.

KSZ001>006-013>018-027>032-041>047-241200-
NORTHWEST KANSAS

CITY           SKY/WX    TMP DP  RH WIND       PRES   REMARKS
GOODLAND       CLOUDY    51  46  83 NW16      29.94R
HAYS           CLOUDY    72  63  73 S13       29.88R THUNDER
HILL CITY      CLOUDY    66  63  90 CALM      29.89R
RUSSELL        CLOUDY    75  66  73 S16G25    29.85F
$$

KSZ061>065-074>080-084>089-241200-
SOUTHWEST KANSAS

CITY           SKY/WX    TMP DP  RH WIND       PRES   REMARKS
DODGE CITY     CLOUDY    71  65  81 S12       29.91R
ELKHART          N/A     58  35  42 NW5         N/A
GARDEN CITY    CLOUDY    66  44  45 W10       29.93R
GREAT BEND     CLOUDY    73  61  64 S22       29.87F
LIBERAL        CLOUDY    70  63  78 NW6       29.94R
$$

KSZ066>073-081>083-090>101-241200-
SOUTHEAST KANSAS

CITY           SKY/WX    TMP DP  RH WIND       PRES   REMARKS
CHANUTE        CLEAR     71  67  87 SE6       30.01R
COFFEYVILLE    CLEAR     72  69  90 SE6       30.00R
HUTCHINSON     CLEAR     73  68  84 S15G22    29.92S
MEDICINE LODGE   N/A     71  66  84 SE7       29.93R
NEWTON         CLEAR    N/A N/A N/A SE10      29.96R
PARSONS        CLEAR     72  68  87 CALM      30.02R
WICHITA INTL   PTCLDY    74  69  85 SE12      29.94S
WICHITA JABRA  CLEAR     72  70  93 SE12G21   29.95R
WICHITA MCCONL CLEAR     72  69  88 S14       29.95S
WINFIELD       MOCLDY    72  69  90 SE10      29.97R
$$

KSZ007>012-019>026-033>040-048>060-102>105-241200-
NORTHEAST KANSAS

CITY           SKY/WX    TMP DP  RH WIND       PRES   REMARKS
CONCORDIA      CLEAR     71  68  90 SE13      29.90S
EMPORIA        CLOUDY    72  67  84 S14       29.98S
LAWRENCE       PTCLDY    68  65  90 E9        30.00R
MANHATTAN      MOCLDY    74  67  78 S9        29.94S
OLATHE IND     CLEAR     70  66  87 SE8       30.02S
OLATHE EXE     CLEAR     67  64  90 S3        30.03R
SALINA         CLEAR     74  68  81 S13       29.90S
TOPEKA BILLARD PTCLDY    71  66  84 E3        29.99R
TOPEKA FORBES  CLOUDY    70  66  87 SE6       29.99S
$$




USA.gov is the U.S. government's official web portal to all federal, state and local government web resources and services.